Time,TemperatureF,DewpointF,PressureIn,WindDirection,WindDirectionDegrees,WindSpeedMPH,WindSpeedGustMPH,Humidity,HourlyPrecipIn,Conditions,Clouds,dailyrainin,SoftwareType,DateUTC
2013-03-05 00:00:00,32.7,55.0,29.65,WNW,288,7.0,9.0,0,0.00,,,0.00,meteohub,2013-03-05 05:00:00,
2013-03-05 00:01:00,32.7,55.0,29.66,WNW,288,9.0,9.0,0,0.00,,,0.00,meteohub,2013-03-05 05:01:00,
2013-03-05 00:02:00,32.7,55.0,29.66,WNW,293,9.0,9.0,0,0.00,,,0.00,meteohub,2013-03-05 05:02:00,
2013-03-05 00:04:00,32.7,55.0,29.66,WNW,303,9.0,9.0,0,0.00,,,0.00,meteohub,2013-03-05 05:04:00,
2013-03-05 00:10:00,32.7,55.0,29.66,West,262,7.0,9.0,0,0.00,,,0.00,meteohub,2013-03-05 05:10:00,
2013-03-05 00:15:00,32.7,55.0,29.66,WNW,300,9.0,9.0,0,0.00,,,0.00,meteohub,2013-03-05 05:15:00,
2013-03-05 00:20:00,32.7,55.0,29.67,WSW,244,10.0,10.0,0,0.00,,,0.00,meteohub,2013-03-05 05:20:00,
2013-03-05 00:25:00,32.7,55.0,29.67,WNW,285,8.0,10.0,0,0.00,,,0.00,meteohub,2013-03-05 05:25:00,
2013-03-05 00:30:00,32.7,55.0,29.67,North,357,6.0,10.0,0,0.00,,,0.00,meteohub,2013-03-05 05:30:00,
2013-03-05 00:35:00,32.7,55.0,29.67,NW,324,4.0,10.0,0,0.00,,,0.00,meteohub,2013-03-05 05:35:00,
2013-03-05 00:40:00,32.7,55.0,29.68,NW,305,6.0,8.0,0,0.00,,,0.00,meteohub,2013-03-05 05:40:00,
2013-03-05 00:45:00,32.9,55.0,29.68,NW,326,8.0,8.0,0,0.00,,,0.00,meteohub,2013-03-05 05:45:00,
2013-03-05 00:50:00,32.9,55.0,29.68,WNW,296,10.0,10.0,0,0.00,,,0.00,meteohub,2013-03-05 05:50:00,
2013-03-05 00:55:00,32.9,55.0,29.69,NNW,348,7.0,10.0,0,0.00,,,0.00,meteohub,2013-03-05 05:55:00,
2013-03-05 01:01:00,32.9,55.0,29.69,NW,316,7.0,10.0,0,0.00,,,0.00,meteohub,2013-03-05 06:01:00,
2013-03-05 01:06:00,32.9,55.0,29.69,WNW,291,9.0,10.0,0,0.00,,,0.00,meteohub,2013-03-05 06:06:00,
2013-03-05 01:11:00,32.9,55.0,29.69,WNW,286,9.0,10.0,0,0.00,,,0.00,meteohub,2013-03-05 06:11:00,
2013-03-05 01:16:00,32.9,55.0,29.69,WNW,288,9.0,9.0,0,0.00,,,0.00,meteohub,2013-03-05 06:16:00,
2013-03-05 01:21:00,33.1,55.0,29.70,West,264,9.0,9.0,0,0.00,,,0.00,meteohub,2013-03-05 06:21:00,
2013-03-05 01:26:00,32.7,55.0,29.70,WNW,286,7.0,9.0,0,0.00,,,0.00,meteohub,2013-03-05 06:26:00,
2013-03-05 01:31:00,32.9,55.0,29.70,WNW,302,11.0,11.0,0,0.00,,,0.00,meteohub,2013-03-05 06:31:00,
2013-03-05 01:36:00,32.7,55.0,29.70,WNW,286,6.0,11.0,0,0.00,,,0.00,meteohub,2013-03-05 06:36:00,
2013-03-05 01:41:00,32.7,55.0,29.70,WNW,300,3.0,11.0,0,0.00,,,0.00,meteohub,2013-03-05 06:41:00,
2013-03-05 01:46:00,32.9,55.0,29.70,WNW,300,6.0,11.0,0,0.00,,,0.00,meteohub,2013-03-05 06:46:00,
2013-03-05 01:52:00,32.9,55.0,29.70,NW,315,9.0,11.0,0,0.00,,,0.00,meteohub,2013-03-05 06:52:00,
2013-03-05 01:57:00,33.1,55.0,29.70,West,281,9.0,9.0,0,0.00,,,0.00,meteohub,2013-03-05 06:57:00,
2013-03-05 02:02:00,32.9,55.0,29.71,WNW,302,9.0,9.0,0,0.00,,,0.00,meteohub,2013-03-05 07:02:00,
2013-03-05 02:07:00,32.7,55.0,29.71,NW,316,6.0,9.0,0,0.00,,,0.00,meteohub,2013-03-05 07:07:00,
2013-03-05 02:12:00,33.1,55.0,29.71,WNW,299,10.0,10.0,0,0.00,,,0.00,meteohub,2013-03-05 07:12:00,
2013-03-05 02:17:00,32.9,55.0,29.71,NW,313,9.0,10.0,0,0.00,,,0.00,meteohub,2013-03-05 07:17:00,
2013-03-05 02:22:00,32.9,55.0,29.71,NW,310,5.0,10.0,0,0.00,,,0.00,meteohub,2013-03-05 07:22:00,
2013-03-05 02:27:00,32.7,55.0,29.71,West,268,10.0,10.0,0,0.00,,,0.00,meteohub,2013-03-05 07:27:00,
2013-03-05 02:32:00,33.1,55.0,29.72,NNW,334,6.0,10.0,0,0.00,,,0.00,meteohub,2013-03-05 07:32:00,
2013-03-05 02:37:00,32.9,55.0,29.72,NNW,334,6.0,10.0,0,0.00,,,0.00,meteohub,2013-03-05 07:37:00,
2013-03-05 02:42:00,32.9,55.0,29.72,NNW,330,6.0,10.0,0,0.00,,,0.00,meteohub,2013-03-05 07:42:00,
2013-03-05 02:47:00,32.9,55.0,29.72,NW,313,8.0,10.0,0,0.00,,,0.00,meteohub,2013-03-05 07:47:00,
2013-03-05 02:52:00,33.1,55.0,29.72,West,264,9.0,9.0,0,0.00,,,0.00,meteohub,2013-03-05 07:52:00,
2013-03-05 02:57:00,33.1,55.0,29.73,WNW,295,6.0,9.0,0,0.00,,,0.00,meteohub,2013-03-05 07:57:00,
2013-03-05 03:02:00,33.1,55.0,29.73,WNW,286,8.0,9.0,0,0.00,,,0.00,meteohub,2013-03-05 08:02:00,
2013-03-05 03:07:00,33.1,55.0,29.73,NW,317,4.0,9.0,0,0.00,,,0.00,meteohub,2013-03-05 08:07:00,
2013-03-05 03:12:00,33.1,55.0,29.73,WNW,295,10.0,10.0,0,0.00,,,0.00,meteohub,2013-03-05 08:12:00,
2013-03-05 03:17:00,33.1,55.0,29.73,NW,306,0.0,10.0,0,0.00,,,0.00,meteohub,2013-03-05 08:17:00,
2013-03-05 03:22:00,33.1,55.0,29.74,NNW,327,7.0,10.0,0,0.00,,,0.00,meteohub,2013-03-05 08:22:00,
2013-03-05 03:27:00,33.1,55.0,29.74,WNW,293,7.0,10.0,0,0.00,,,0.00,meteohub,2013-03-05 08:27:00,
2013-03-05 03:32:00,33.1,55.0,29.75,WNW,303,7.0,10.0,0,0.00,,,0.00,meteohub,2013-03-05 08:32:00,
2013-03-05 03:37:00,33.1,55.0,29.75,WNW,300,8.0,8.0,0,0.00,,,0.00,meteohub,2013-03-05 08:37:00,
2013-03-05 03:42:00,33.1,55.0,29.75,NW,320,7.0,8.0,0,0.00,,,0.00,meteohub,2013-03-05 08:42:00,
2013-03-05 03:47:00,33.1,55.0,29.76,WSW,251,5.0,8.0,0,0.00,,,0.00,meteohub,2013-03-05 08:47:00,
2013-03-05 03:52:00,33.1,55.0,29.76,NW,324,5.0,8.0,0,0.00,,,0.00,meteohub,2013-03-05 08:52:00,
2013-03-05 03:57:00,33.1,55.0,29.76,WNW,289,6.0,8.0,0,0.00,,,0.00,meteohub,2013-03-05 08:57:00,
2013-03-05 04:02:00,33.1,55.0,29.76,WNW,302,6.0,7.0,0,0.00,,,0.00,meteohub,2013-03-05 09:02:00,
2013-03-05 04:07:00,33.1,55.0,29.77,NW,306,4.0,6.0,0,0.00,,,0.00,meteohub,2013-03-05 09:07:00,
2013-03-05 04:12:00,33.1,55.0,29.77,WNW,302,5.0,6.0,0,0.00,,,0.00,meteohub,2013-03-05 09:12:00,
2013-03-05 04:17:00,33.1,55.0,29.77,NNW,341,8.0,8.0,0,0.00,,,0.00,meteohub,2013-03-05 09:17:00,
2013-03-05 04:22:00,33.1,55.0,29.78,NW,310,7.0,8.0,0,0.00,,,0.00,meteohub,2013-03-05 09:22:00,
2013-03-05 04:27:00,33.1,55.0,29.78,NNW,336,6.0,8.0,0,0.00,,,0.00,meteohub,2013-03-05 09:27:00,
2013-03-05 04:32:00,33.1,55.0,29.78,WNW,289,8.0,8.0,0,0.00,,,0.00,meteohub,2013-03-05 09:32:00,
2013-03-05 04:37:00,33.1,55.0,29.79,NW,309,10.0,10.0,0,0.00,,,0.00,meteohub,2013-03-05 09:37:00,
2013-03-05 04:42:00,33.1,55.0,29.79,WNW,293,8.0,10.0,0,0.00,,,0.00,meteohub,2013-03-05 09:42:00,
2013-03-05 04:47:00,33.1,55.0,29.79,NNE,22,9.0,10.0,0,0.00,,,0.00,meteohub,2013-03-05 09:47:00,
2013-03-05 04:52:00,33.3,55.0,29.79,WNW,284,7.0,10.0,0,0.00,,,0.00,meteohub,2013-03-05 09:52:00,
2013-03-05 04:57:00,33.1,55.0,29.80,WNW,300,8.0,10.0,0,0.00,,,0.00,meteohub,2013-03-05 09:57:00,
2013-03-05 05:02:00,33.1,55.0,29.80,WNW,292,10.0,10.0,0,0.00,,,0.00,meteohub,2013-03-05 10:02:00,
2013-03-05 05:07:00,33.3,55.0,29.80,NNW,330,6.0,10.0,0,0.00,,,0.00,meteohub,2013-03-05 10:07:00,
2013-03-05 05:12:00,33.1,55.0,29.81,WNW,299,7.0,10.0,0,0.00,,,0.00,meteohub,2013-03-05 10:12:00,
2013-03-05 05:17:00,33.1,55.0,29.81,North,358,9.0,10.0,0,0.00,,,0.00,meteohub,2013-03-05 10:17:00,
2013-03-05 05:22:00,33.1,55.0,29.81,NNW,336,9.0,10.0,0,0.00,,,0.00,meteohub,2013-03-05 10:22:00,
2013-03-05 05:27:00,33.1,55.0,29.81,WSW,257,5.0,9.0,0,0.00,,,0.00,meteohub,2013-03-05 10:27:00,
2013-03-05 05:32:00,33.1,55.0,29.81,NW,322,6.0,9.0,0,0.00,,,0.00,meteohub,2013-03-05 10:32:00,
2013-03-05 05:37:00,33.3,55.0,29.82,NW,305,10.0,10.0,0,0.00,,,0.00,meteohub,2013-03-05 10:37:00,
2013-03-05 05:42:00,33.1,55.0,29.82,NW,322,9.0,10.0,0,0.00,,,0.00,meteohub,2013-03-05 10:42:00,
2013-03-05 05:47:00,33.1,55.0,29.82,NW,324,6.0,10.0,0,0.00,,,0.00,meteohub,2013-03-05 10:47:00,
2013-03-05 05:52:00,33.1,55.0,29.82,WNW,295,8.0,10.0,0,0.00,,,0.00,meteohub,2013-03-05 10:52:00,
2013-03-05 05:57:00,33.1,55.0,29.83,North,2,9.0,10.0,0,0.00,,,0.00,meteohub,2013-03-05 10:57:00,
2013-03-05 06:02:00,33.1,55.0,29.83,NW,317,9.0,9.0,0,0.00,,,0.00,meteohub,2013-03-05 11:02:00,
2013-03-05 06:07:00,33.1,55.0,29.83,NW,306,7.0,9.0,0,0.00,,,0.00,meteohub,2013-03-05 11:07:00,
2013-03-05 06:12:00,33.1,55.0,29.83,West,272,8.0,9.0,0,0.00,,,0.00,meteohub,2013-03-05 11:12:00,
2013-03-05 06:17:00,33.1,55.0,29.83,NW,305,7.0,9.0,0,0.00,,,0.00,meteohub,2013-03-05 11:17:00,
2013-03-05 06:22:00,33.1,55.0,29.84,NW,324,11.0,11.0,0,0.00,,,0.00,meteohub,2013-03-05 11:22:00,
2013-03-05 06:27:00,33.1,55.0,29.84,North,352,9.0,11.0,0,0.00,,,0.00,meteohub,2013-03-05 11:27:00,
2013-03-05 06:32:00,33.1,55.0,29.85,NNW,336,7.0,11.0,0,0.00,,,0.00,meteohub,2013-03-05 11:32:00,
2013-03-05 06:37:00,33.1,55.0,29.85,WNW,295,9.0,11.0,0,0.00,,,0.00,meteohub,2013-03-05 11:37:00,
2013-03-05 06:42:00,33.1,55.0,29.85,WNW,303,8.0,11.0,0,0.00,,,0.00,meteohub,2013-03-05 11:42:00,
2013-03-05 06:47:00,33.1,55.0,29.85,WNW,302,6.0,9.0,0,0.00,,,0.00,meteohub,2013-03-05 11:47:00,
2013-03-05 06:52:00,33.3,55.0,29.85,WNW,282,8.0,9.0,0,0.00,,,0.00,meteohub,2013-03-05 11:52:00,
2013-03-05 06:57:00,33.3,55.0,29.86,WNW,288,9.0,9.0,0,0.00,,,0.00,meteohub,2013-03-05 11:57:00,
2013-03-05 07:02:00,33.3,55.0,29.86,West,260,8.0,9.0,0,0.00,,,0.00,meteohub,2013-03-05 12:02:00,
2013-03-05 07:07:00,33.3,55.0,29.86,NNW,341,7.0,9.0,0,0.00,,,0.00,meteohub,2013-03-05 12:07:00,
2013-03-05 07:12:00,33.3,55.0,29.86,NW,306,7.0,9.0,0,0.00,,,0.00,meteohub,2013-03-05 12:12:00,
2013-03-05 07:17:00,33.3,55.0,29.86,WNW,284,8.0,9.0,0,0.00,,,0.00,meteohub,2013-03-05 12:17:00,
2013-03-05 07:22:00,33.3,55.0,29.87,NW,319,6.0,8.0,0,0.00,,,0.00,meteohub,2013-03-05 12:22:00,
2013-03-05 07:27:00,33.4,55.0,29.87,WNW,293,7.0,8.0,0,0.00,,,0.00,meteohub,2013-03-05 12:27:00,
2013-03-05 07:32:00,33.4,55.0,29.87,WNW,291,9.0,9.0,0,0.00,,,0.00,meteohub,2013-03-05 12:32:00,
2013-03-05 07:37:00,33.4,55.0,29.88,West,279,9.0,9.0,0,0.00,,,0.00,meteohub,2013-03-05 12:37:00,
2013-03-05 07:42:00,33.4,55.0,29.88,North,358,8.0,9.0,0,0.00,,,0.00,meteohub,2013-03-05 12:42:00,
2013-03-05 07:47:00,33.4,55.0,29.88,North,11,6.0,9.0,0,0.00,,,0.00,meteohub,2013-03-05 12:47:00,
2013-03-05 07:52:00,33.6,55.0,29.88,WNW,295,5.0,9.0,0,0.00,,,0.00,meteohub,2013-03-05 12:52:00,
2013-03-05 07:57:00,33.6,55.0,29.88,WNW,299,8.0,9.0,0,0.00,,,0.00,meteohub,2013-03-05 12:57:00,
2013-03-05 08:02:00,33.8,55.0,29.88,North,5,7.0,8.0,0,0.00,,,0.00,meteohub,2013-03-05 13:02:00,
2013-03-05 08:07:00,34.0,55.0,29.88,WNW,288,10.0,10.0,0,0.00,,,0.00,meteohub,2013-03-05 13:07:00,
2013-03-05 08:12:00,34.0,55.0,29.88,West,275,7.0,10.0,0,0.00,,,0.00,meteohub,2013-03-05 13:12:00,
2013-03-05 08:17:00,34.0,55.0,29.88,NW,322,9.0,10.0,0,0.00,,,0.00,meteohub,2013-03-05 13:17:00,
2013-03-05 08:22:00,34.2,55.0,29.89,NNW,338,8.0,10.0,0,0.00,,,0.00,meteohub,2013-03-05 13:22:00,
2013-03-05 08:27:00,34.2,55.9,29.89,NW,306,8.0,10.0,0,0.00,,,0.00,meteohub,2013-03-05 13:27:00,
2013-03-05 08:32:00,34.2,55.9,29.89,North,351,6.0,9.0,0,0.00,,,0.00,meteohub,2013-03-05 13:32:00,
2013-03-05 08:37:00,34.2,55.9,29.89,WNW,284,8.0,9.0,0,0.00,,,0.00,meteohub,2013-03-05 13:37:00,
2013-03-05 08:42:00,34.2,55.9,29.89,NW,315,7.0,8.0,0,0.00,,,0.00,meteohub,2013-03-05 13:42:00,
2013-03-05 08:47:00,34.3,55.9,29.90,WNW,292,7.0,8.0,0,0.00,,,0.00,meteohub,2013-03-05 13:47:00,
2013-03-05 08:52:00,34.3,55.9,29.90,NNW,331,9.0,9.0,0,0.00,,,0.00,meteohub,2013-03-05 13:52:00,
2013-03-05 08:57:00,34.5,55.9,29.90,WNW,299,7.0,9.0,0,0.00,,,0.00,meteohub,2013-03-05 13:57:00,
2013-03-05 09:02:00,34.7,55.9,29.90,WNW,292,7.0,9.0,0,0.00,,,0.00,meteohub,2013-03-05 14:02:00,
2013-03-05 09:07:00,34.7,55.9,29.90,NNW,347,10.0,10.0,0,0.00,,,0.00,meteohub,2013-03-05 14:07:00,
2013-03-05 09:12:00,35.1,55.9,29.91,WNW,302,10.0,10.0,0,0.00,,,0.00,meteohub,2013-03-05 14:12:00,
2013-03-05 09:17:00,35.1,55.9,29.91,NW,323,6.0,10.0,0,0.00,,,0.00,meteohub,2013-03-05 14:17:00,
2013-03-05 09:22:00,35.2,55.9,29.91,NNW,344,6.0,10.0,0,0.00,,,0.00,meteohub,2013-03-05 14:22:00,
2013-03-05 09:27:00,35.2,55.9,29.91,WNW,293,10.0,10.0,0,0.00,,,0.00,meteohub,2013-03-05 14:27:00,
2013-03-05 09:32:00,35.6,55.9,29.91,WNW,288,8.0,10.0,0,0.00,,,0.00,meteohub,2013-03-05 14:32:00,
2013-03-05 09:37:00,36.3,55.9,29.91,NNE,18,7.0,10.0,0,0.00,,,0.00,meteohub,2013-03-05 14:37:00,
2013-03-05 09:42:00,36.9,55.9,29.91,WNW,296,10.0,10.0,0,0.00,,,0.00,meteohub,2013-03-05 14:42:00,
2013-03-05 09:47:00,36.9,55.9,29.91,NNW,327,7.0,10.0,0,0.00,,,0.00,meteohub,2013-03-05 14:47:00,
2013-03-05 09:52:00,36.7,55.9,29.91,NNW,347,8.0,10.0,0,0.00,,,0.00,meteohub,2013-03-05 14:52:00,
2013-03-05 09:57:00,36.5,55.9,29.92,NW,310,9.0,10.0,0,0.00,,,0.00,meteohub,2013-03-05 14:57:00,
2013-03-05 10:02:00,36.9,55.9,29.91,NNW,327,10.0,10.0,0,0.00,,,0.00,meteohub,2013-03-05 15:02:00,
2013-03-05 10:07:00,37.0,55.9,29.91,West,268,10.0,10.0,0,0.00,,,0.00,meteohub,2013-03-05 15:07:00,
2013-03-05 10:12:00,37.0,55.0,29.92,NNW,331,9.0,10.0,0,0.00,,,0.00,meteohub,2013-03-05 15:12:00,
2013-03-05 10:17:00,37.2,55.0,29.92,NW,313,11.0,11.0,0,0.00,,,0.00,meteohub,2013-03-05 15:17:00,
2013-03-05 10:22:00,37.2,55.0,29.92,NW,315,9.0,11.0,0,0.00,,,0.00,meteohub,2013-03-05 15:22:00,
2013-03-05 10:27:00,37.2,55.0,29.92,WSW,241,7.0,11.0,0,0.00,,,0.00,meteohub,2013-03-05 15:27:00,
2013-03-05 10:32:00,37.2,55.0,29.92,NNW,333,8.0,11.0,0,0.00,,,0.00,meteohub,2013-03-05 15:32:00,
2013-03-05 10:37:00,37.6,55.0,29.92,North,352,7.0,11.0,0,0.00,,,0.00,meteohub,2013-03-05 15:37:00,
2013-03-05 10:42:00,38.3,55.0,29.92,NNE,26,9.0,9.0,0,0.00,,,0.00,meteohub,2013-03-05 15:42:00,
2013-03-05 10:47:00,37.6,55.0,29.93,NNE,21,13.0,13.0,0,0.00,,,0.00,meteohub,2013-03-05 15:47:00,
2013-03-05 10:52:00,37.6,55.0,29.93,NNW,331,9.0,13.0,0,0.00,,,0.00,meteohub,2013-03-05 15:52:00,
2013-03-05 10:57:00,37.8,55.0,29.93,WNW,291,6.0,13.0,0,0.00,,,0.00,meteohub,2013-03-05 15:57:00,
2013-03-05 11:02:00,37.9,55.0,29.93,NNW,336,9.0,13.0,0,0.00,,,0.00,meteohub,2013-03-05 16:02:00,
2013-03-05 11:07:00,38.1,55.0,29.93,NW,309,10.0,13.0,0,0.00,,,0.00,meteohub,2013-03-05 16:07:00,
2013-03-05 11:12:00,38.3,55.0,29.93,NW,320,8.0,10.0,0,0.00,,,0.00,meteohub,2013-03-05 16:12:00,
2013-03-05 11:17:00,38.1,55.0,29.93,North,358,11.0,11.0,0,0.00,,,0.00,meteohub,2013-03-05 16:17:00,
2013-03-05 11:22:00,37.8,55.0,29.93,NNW,333,9.0,11.0,0,0.00,,,0.00,meteohub,2013-03-05 16:22:00,
2013-03-05 11:27:00,38.7,55.0,29.93,NNW,340,10.0,11.0,0,0.00,,,0.00,meteohub,2013-03-05 16:27:00,
2013-03-05 11:32:00,38.8,55.0,29.93,North,355,9.0,11.0,0,0.00,,,0.00,meteohub,2013-03-05 16:32:00,
2013-03-05 11:37:00,38.1,55.0,29.93,West,275,9.0,11.0,0,0.00,,,0.00,meteohub,2013-03-05 16:37:00,
2013-03-05 11:42:00,38.7,55.0,29.93,NNW,337,9.0,10.0,0,0.00,,,0.00,meteohub,2013-03-05 16:42:00,
2013-03-05 11:47:00,40.3,55.0,29.93,North,350,8.0,10.0,0,0.00,,,0.00,meteohub,2013-03-05 16:47:00,
2013-03-05 11:52:00,39.6,55.0,29.94,NW,310,8.0,9.0,0,0.00,,,0.00,meteohub,2013-03-05 16:52:00,
2013-03-05 11:57:00,38.5,55.0,29.94,NNW,341,6.0,9.0,0,0.00,,,0.00,meteohub,2013-03-05 16:57:00,
2013-03-05 12:02:00,38.8,55.0,29.94,NNE,12,10.0,10.0,0,0.00,,,0.00,meteohub,2013-03-05 17:02:00,
2013-03-05 12:07:00,39.0,55.0,29.94,NW,307,9.0,10.0,0,0.00,,,0.00,meteohub,2013-03-05 17:07:00,
2013-03-05 12:12:00,39.0,55.0,29.94,NNW,343,9.0,10.0,0,0.00,,,0.00,meteohub,2013-03-05 17:12:00,
2013-03-05 12:17:00,39.6,55.0,29.94,NW,307,8.0,10.0,0,0.00,,,0.00,meteohub,2013-03-05 17:17:00,
2013-03-05 12:22:00,40.5,55.0,29.94,NW,320,7.0,10.0,0,0.00,,,0.00,meteohub,2013-03-05 17:22:00,
2013-03-05 12:27:00,40.3,55.0,29.94,WNW,303,7.0,9.0,0,0.00,,,0.00,meteohub,2013-03-05 17:27:00,
2013-03-05 12:32:00,40.3,55.0,29.94,WNW,286,7.0,9.0,0,0.00,,,0.00,meteohub,2013-03-05 17:32:00,
2013-03-05 12:37:00,39.7,55.0,29.94,NNW,336,9.0,9.0,0,0.00,,,0.00,meteohub,2013-03-05 17:37:00,
2013-03-05 12:42:00,39.9,55.0,29.94,NW,305,9.0,9.0,0,0.00,,,0.00,meteohub,2013-03-05 17:42:00,
2013-03-05 12:47:00,40.5,55.0,29.94,NW,319,8.0,9.0,0,0.00,,,0.00,meteohub,2013-03-05 17:47:00,
2013-03-05 12:52:00,42.1,55.0,29.94,NW,310,7.0,9.0,0,0.00,,,0.00,meteohub,2013-03-05 17:52:00,
2013-03-05 12:57:00,41.0,55.0,29.94,WNW,299,7.0,9.0,0,0.00,,,0.00,meteohub,2013-03-05 17:57:00,
2013-03-05 13:02:00,40.1,54.0,29.94,WNW,292,10.0,10.0,0,0.00,,,0.00,meteohub,2013-03-05 18:02:00,
2013-03-05 13:07:00,40.3,54.0,29.95,NNW,330,7.0,10.0,0,0.00,,,0.00,meteohub,2013-03-05 18:07:00,
2013-03-05 13:12:00,41.2,55.0,29.94,NNE,16,11.0,11.0,0,0.00,,,0.00,meteohub,2013-03-05 18:12:00,
2013-03-05 13:17:00,41.7,54.0,29.95,NNE,15,8.0,11.0,0,0.00,,,0.00,meteohub,2013-03-05 18:17:00,
2013-03-05 13:22:00,41.2,54.0,29.95,NW,316,6.0,11.0,0,0.00,,,0.00,meteohub,2013-03-05 18:22:00,
2013-03-05 13:27:00,40.5,54.0,29.95,NW,313,8.0,11.0,0,0.00,,,0.00,meteohub,2013-03-05 18:27:00,
2013-03-05 13:32:00,40.6,54.0,29.95,NW,317,9.0,11.0,0,0.00,,,0.00,meteohub,2013-03-05 18:32:00,
2013-03-05 13:37:00,40.8,54.0,29.95,NNE,25,9.0,9.0,0,0.00,,,0.00,meteohub,2013-03-05 18:37:00,
2013-03-05 13:42:00,40.6,54.0,29.96,WNW,292,7.0,9.0,0,0.00,,,0.00,meteohub,2013-03-05 18:42:00,
2013-03-05 13:47:00,40.8,54.0,29.96,West,279,7.0,9.0,0,0.00,,,0.00,meteohub,2013-03-05 18:47:00,
2013-03-05 13:52:00,40.8,54.0,29.96,NNW,345,6.0,9.0,0,0.00,,,0.00,meteohub,2013-03-05 18:52:00,
2013-03-05 13:57:00,40.8,54.0,29.96,NE,36,7.0,9.0,0,0.00,,,0.00,meteohub,2013-03-05 18:57:00,
2013-03-05 14:02:00,40.6,54.0,29.96,NNW,347,10.0,10.0,0,0.00,,,0.00,meteohub,2013-03-05 19:02:00,
2013-03-05 14:07:00,40.6,54.0,29.96,North,358,11.0,11.0,0,0.00,,,0.00,meteohub,2013-03-05 19:07:00,
2013-03-05 14:12:00,40.6,54.0,29.96,North,358,9.0,11.0,0,0.00,,,0.00,meteohub,2013-03-05 19:12:00,
2013-03-05 14:17:00,41.2,54.0,29.96,NNW,344,7.0,11.0,0,0.00,,,0.00,meteohub,2013-03-05 19:17:00,
2013-03-05 14:22:00,40.8,54.0,29.97,NW,310,8.0,11.0,0,0.00,,,0.00,meteohub,2013-03-05 19:22:00,
2013-03-05 14:27:00,40.5,54.0,29.97,NE,40,10.0,11.0,0,0.00,,,0.00,meteohub,2013-03-05 19:27:00,
2013-03-05 14:32:00,40.1,54.0,29.97,NNW,337,10.0,10.0,0,0.00,,,0.00,meteohub,2013-03-05 19:32:00,
2013-03-05 14:37:00,39.9,54.0,29.97,WNW,302,10.0,10.0,0,0.00,,,0.00,meteohub,2013-03-05 19:37:00,
2013-03-05 14:42:00,39.6,54.0,29.97,WNW,295,6.0,10.0,0,0.00,,,0.00,meteohub,2013-03-05 19:42:00,
2013-03-05 14:47:00,39.0,54.0,29.97,NNE,28,10.0,10.0,0,0.00,,,0.00,meteohub,2013-03-05 19:47:00,
2013-03-05 14:52:00,39.2,54.0,29.97,NW,315,5.0,10.0,0,0.00,,,0.00,meteohub,2013-03-05 19:52:00,
2013-03-05 14:57:00,39.0,54.0,29.97,NW,320,6.0,10.0,0,0.00,,,0.00,meteohub,2013-03-05 19:57:00,
2013-03-05 15:02:00,39.0,54.0,29.97,NNW,340,9.0,10.0,0,0.00,,,0.00,meteohub,2013-03-05 20:02:00,
2013-03-05 15:07:00,39.4,54.0,29.98,NW,310,6.0,10.0,0,0.00,,,0.00,meteohub,2013-03-05 20:07:00,
2013-03-05 15:12:00,39.0,54.0,29.98,North,358,5.0,9.0,0,0.00,,,0.00,meteohub,2013-03-05 20:12:00,
2013-03-05 15:17:00,39.0,54.0,29.98,NW,316,6.0,9.0,0,0.00,,,0.00,meteohub,2013-03-05 20:17:00,
2013-03-05 15:22:00,39.0,54.0,29.98,West,274,5.0,9.0,0,0.00,,,0.00,meteohub,2013-03-05 20:22:00,
2013-03-05 15:27:00,39.0,54.0,29.98,NW,313,4.0,6.0,0,0.00,,,0.00,meteohub,2013-03-05 20:27:00,
2013-03-05 15:32:00,38.8,54.0,29.99,NW,323,6.0,6.0,0,0.00,,,0.00,meteohub,2013-03-05 20:32:00,
2013-03-05 15:37:00,38.7,54.0,29.99,WNW,296,7.0,7.0,0,0.00,,,0.00,meteohub,2013-03-05 20:37:00,
2013-03-05 15:42:00,38.7,54.0,29.99,NNW,330,7.0,7.0,0,0.00,,,0.00,meteohub,2013-03-05 20:42:00,
2013-03-05 15:47:00,38.5,54.0,29.99,NW,306,3.0,7.0,0,0.00,,,0.00,meteohub,2013-03-05 20:47:00,
2013-03-05 15:52:00,38.5,54.0,29.99,WNW,286,5.0,7.0,0,0.00,,,0.00,meteohub,2013-03-05 20:52:00,
2013-03-05 15:57:00,38.7,54.0,29.99,WNW,293,4.0,7.0,0,0.00,,,0.00,meteohub,2013-03-05 20:57:00,
2013-03-05 16:03:00,38.5,54.0,29.99,North,1,6.0,7.0,0,0.00,,,0.00,meteohub,2013-03-05 21:03:00,
2013-03-05 16:08:00,38.5,54.0,30.00,West,279,6.0,6.0,0,0.00,,,0.00,meteohub,2013-03-05 21:08:00,
2013-03-05 16:13:00,38.3,54.0,30.00,NW,319,6.0,6.0,0,0.00,,,0.00,meteohub,2013-03-05 21:13:00,
2013-03-05 16:18:00,38.1,54.0,30.00,NW,316,10.0,10.0,0,0.00,,,0.00,meteohub,2013-03-05 21:18:00,
2013-03-05 16:23:00,38.1,54.0,30.00,WNW,303,6.0,10.0,0,0.00,,,0.00,meteohub,2013-03-05 21:23:00,
2013-03-05 16:28:00,38.1,54.0,30.01,NW,320,8.0,10.0,0,0.00,,,0.00,meteohub,2013-03-05 21:28:00,
2013-03-05 16:33:00,38.1,54.0,30.01,WNW,298,7.0,10.0,0,0.00,,,0.00,meteohub,2013-03-05 21:33:00,
2013-03-05 16:38:00,37.9,54.0,30.01,WNW,298,6.0,10.0,0,0.00,,,0.00,meteohub,2013-03-05 21:38:00,
2013-03-05 16:44:00,38.1,54.0,30.01,NW,317,6.0,8.0,0,0.00,,,0.00,meteohub,2013-03-05 21:44:00,
2013-03-05 16:49:00,37.9,54.0,30.01,North,4,6.0,8.0,0,0.00,,,0.00,meteohub,2013-03-05 21:49:00,
2013-03-05 16:54:00,37.8,54.0,30.01,NNW,336,4.0,7.0,0,0.00,,,0.00,meteohub,2013-03-05 21:54:00,
2013-03-05 16:59:00,37.8,54.0,30.01,NW,326,3.0,6.0,0,0.00,,,0.00,meteohub,2013-03-05 21:59:00,
2013-03-05 17:04:00,37.8,54.0,30.01,NW,309,5.0,6.0,0,0.00,,,0.00,meteohub,2013-03-05 22:04:00,
2013-03-05 17:09:00,37.8,54.0,30.01,WNW,293,7.0,7.0,0,0.00,,,0.00,meteohub,2013-03-05 22:09:00,
2013-03-05 17:14:00,37.6,54.0,30.02,NNW,331,6.0,7.0,0,0.00,,,0.00,meteohub,2013-03-05 22:14:00,
2013-03-05 17:19:00,37.4,54.0,30.02,NW,324,5.0,7.0,0,0.00,,,0.00,meteohub,2013-03-05 22:19:00,
2013-03-05 17:25:00,37.0,55.0,30.02,NNW,334,7.0,7.0,0,0.00,,,0.00,meteohub,2013-03-05 22:25:00,
2013-03-05 17:30:00,36.7,55.0,30.03,North,358,6.0,7.0,0,0.00,,,0.00,meteohub,2013-03-05 22:30:00,
2013-03-05 17:35:00,36.7,54.0,30.03,North,357,8.0,8.0,0,0.00,,,0.00,meteohub,2013-03-05 22:35:00,
2013-03-05 17:40:00,36.7,55.0,30.03,NNE,12,5.0,8.0,0,0.00,,,0.00,meteohub,2013-03-05 22:40:00,
2013-03-05 17:45:00,36.3,55.0,30.03,NNE,22,7.0,8.0,0,0.00,,,0.00,meteohub,2013-03-05 22:45:00,
2013-03-05 17:50:00,36.3,55.0,30.03,NNW,341,4.0,8.0,0,0.00,,,0.00,meteohub,2013-03-05 22:50:00,
2013-03-05 17:55:00,36.5,55.0,30.03,North,358,9.0,9.0,0,0.00,,,0.00,meteohub,2013-03-05 22:55:00,
2013-03-05 18:00:00,36.3,55.0,30.04,NNE,29,6.0,9.0,0,0.00,,,0.00,meteohub,2013-03-05 23:00:00,
2013-03-05 18:05:00,36.3,55.0,30.04,WNW,291,7.0,9.0,0,0.00,,,0.00,meteohub,2013-03-05 23:05:00,
2013-03-05 18:11:00,36.3,55.0,30.04,North,351,6.0,9.0,0,0.00,,,0.00,meteohub,2013-03-05 23:11:00,
2013-03-05 18:16:00,36.1,55.0,30.04,NNW,348,7.0,8.0,0,0.00,,,0.00,meteohub,2013-03-05 23:16:00,
2013-03-05 18:21:00,36.0,55.0,30.04,NW,317,6.0,7.0,0,0.00,,,0.00,meteohub,2013-03-05 23:21:00,
2013-03-05 18:26:00,36.1,55.0,30.04,NW,307,5.0,7.0,0,0.00,,,0.00,meteohub,2013-03-05 23:26:00,
2013-03-05 18:31:00,36.1,55.0,30.04,NW,305,5.0,7.0,0,0.00,,,0.00,meteohub,2013-03-05 23:31:00,
2013-03-05 18:36:00,36.1,55.0,30.04,North,350,8.0,8.0,0,0.00,,,0.00,meteohub,2013-03-05 23:36:00,
2013-03-05 18:41:00,36.1,55.0,30.05,North,358,8.0,8.0,0,0.00,,,0.00,meteohub,2013-03-05 23:41:00,
2013-03-05 18:46:00,36.0,55.0,30.05,WNW,284,7.0,8.0,0,0.00,,,0.00,meteohub,2013-03-05 23:46:00,
2013-03-05 18:52:00,35.8,55.0,30.05,NNE,18,5.0,8.0,0,0.00,,,0.00,meteohub,2013-03-05 23:52:00,
2013-03-05 18:57:00,36.0,55.0,30.05,WNW,291,8.0,8.0,0,0.00,,,0.00,meteohub,2013-03-05 23:57:00,
2013-03-05 19:02:00,35.8,55.0,30.06,NNW,336,9.0,9.0,0,0.00,,,0.00,meteohub,2013-03-06 00:02:00,
2013-03-05 19:07:00,35.6,55.0,30.06,WNW,296,6.0,9.0,0,0.00,,,0.00,meteohub,2013-03-06 00:07:00,
2013-03-05 19:12:00,35.4,55.0,30.06,North,351,7.0,9.0,0,0.00,,,0.00,meteohub,2013-03-06 00:12:00,
2013-03-05 19:17:00,35.2,55.0,30.06,WNW,296,9.0,9.0,0,0.00,,,0.00,meteohub,2013-03-06 00:17:00,
2013-03-05 19:22:00,35.2,55.0,30.06,West,279,6.0,9.0,0,0.00,,,0.00,meteohub,2013-03-06 00:22:00,
2013-03-05 19:27:00,35.2,55.0,30.06,North,355,11.0,11.0,0,0.00,,,0.00,meteohub,2013-03-06 00:27:00,
2013-03-05 19:32:00,35.2,55.0,30.06,WNW,291,5.0,11.0,0,0.00,,,0.00,meteohub,2013-03-06 00:32:00,
2013-03-05 19:37:00,35.1,55.0,30.06,WNW,292,9.0,11.0,0,0.00,,,0.00,meteohub,2013-03-06 00:37:00,
2013-03-05 19:42:00,35.1,55.0,30.06,WNW,300,7.0,11.0,0,0.00,,,0.00,meteohub,2013-03-06 00:42:00,
2013-03-05 19:47:00,35.1,55.0,30.06,NE,46,7.0,11.0,0,0.00,,,0.00,meteohub,2013-03-06 00:47:00,
2013-03-05 19:52:00,34.9,55.0,30.07,North,2,8.0,9.0,0,0.00,,,0.00,meteohub,2013-03-06 00:52:00,
2013-03-05 19:57:00,34.9,55.0,30.07,NNW,344,7.0,9.0,0,0.00,,,0.00,meteohub,2013-03-06 00:57:00,
2013-03-05 20:02:00,34.9,55.0,30.07,NNW,340,8.0,8.0,0,0.00,,,0.00,meteohub,2013-03-06 01:02:00,
2013-03-05 20:07:00,34.9,55.0,30.07,WNW,295,10.0,10.0,0,0.00,,,0.00,meteohub,2013-03-06 01:07:00,
2013-03-05 20:12:00,34.7,55.0,30.07,NW,315,6.0,10.0,0,0.00,,,0.00,meteohub,2013-03-06 01:12:00,
2013-03-05 20:17:00,34.7,55.0,30.07,NW,324,7.0,10.0,0,0.00,,,0.00,meteohub,2013-03-06 01:17:00,
2013-03-05 20:22:00,34.7,55.0,30.08,WSW,237,8.0,10.0,0,0.00,,,0.00,meteohub,2013-03-06 01:22:00,
2013-03-05 20:27:00,34.7,55.0,30.08,NNW,336,6.0,10.0,0,0.00,,,0.00,meteohub,2013-03-06 01:27:00,
2013-03-05 20:32:00,34.7,55.0,30.08,WNW,300,8.0,8.0,0,0.00,,,0.00,meteohub,2013-03-06 01:32:00,
2013-03-05 20:37:00,34.5,55.0,30.08,NW,312,9.0,9.0,0,0.00,,,0.00,meteohub,2013-03-06 01:37:00,
2013-03-05 20:42:00,34.5,55.0,30.08,NNW,343,7.0,9.0,0,0.00,,,0.00,meteohub,2013-03-06 01:42:00,
2013-03-05 20:47:00,34.3,55.0,30.08,WNW,298,9.0,9.0,0,0.00,,,0.00,meteohub,2013-03-06 01:47:00,
2013-03-05 20:52:00,34.3,55.0,30.09,NNE,26,8.0,9.0,0,0.00,,,0.00,meteohub,2013-03-06 01:52:00,
2013-03-05 20:57:00,34.2,55.0,30.09,WNW,284,10.0,10.0,0,0.00,,,0.00,meteohub,2013-03-06 01:57:00,
2013-03-05 21:02:00,34.2,55.0,30.09,NW,320,8.0,10.0,0,0.00,,,0.00,meteohub,2013-03-06 02:02:00,
2013-03-05 21:07:00,34.2,55.0,30.09,WNW,302,9.0,10.0,0,0.00,,,0.00,meteohub,2013-03-06 02:07:00,
2013-03-05 21:12:00,34.0,55.0,30.09,West,272,5.0,10.0,0,0.00,,,0.00,meteohub,2013-03-06 02:12:00,
2013-03-05 21:17:00,34.0,55.0,30.09,North,0,5.0,10.0,0,0.00,,,0.00,meteohub,2013-03-06 02:17:00,
2013-03-05 21:22:00,34.0,55.0,30.09,NW,322,9.0,9.0,0,0.00,,,0.00,meteohub,2013-03-06 02:22:00,
2013-03-05 21:27:00,33.8,55.0,30.09,NW,309,8.0,9.0,0,0.00,,,0.00,meteohub,2013-03-06 02:27:00,
2013-03-05 21:32:00,33.8,55.0,30.09,NW,310,9.0,9.0,0,0.00,,,0.00,meteohub,2013-03-06 02:32:00,
2013-03-05 21:37:00,33.8,55.0,30.09,NNW,345,6.0,9.0,0,0.00,,,0.00,meteohub,2013-03-06 02:37:00,
2013-03-05 21:42:00,33.6,55.0,30.09,NNW,337,5.0,9.0,0,0.00,,,0.00,meteohub,2013-03-06 02:42:00,
2013-03-05 21:47:00,33.8,55.0,30.10,NW,306,5.0,9.0,0,0.00,,,0.00,meteohub,2013-03-06 02:47:00,
2013-03-05 21:52:00,33.8,55.0,30.10,NNW,333,5.0,9.0,0,0.00,,,0.00,meteohub,2013-03-06 02:52:00,
2013-03-05 21:57:00,33.8,55.0,30.10,North,351,6.0,6.0,0,0.00,,,0.00,meteohub,2013-03-06 02:57:00,
2013-03-05 22:02:00,33.8,55.0,30.10,NE,37,4.0,6.0,0,0.00,,,0.00,meteohub,2013-03-06 03:02:00,
2013-03-05 22:07:00,33.8,55.0,30.11,WSW,258,6.0,6.0,0,0.00,,,0.00,meteohub,2013-03-06 03:07:00,
2013-03-05 22:12:00,33.6,55.0,30.11,WNW,285,3.0,6.0,0,0.00,,,0.00,meteohub,2013-03-06 03:12:00,
2013-03-05 22:17:00,33.6,55.0,30.11,West,261,5.0,6.0,0,0.00,,,0.00,meteohub,2013-03-06 03:17:00,
2013-03-05 22:22:00,33.6,55.0,30.11,NE,52,4.0,6.0,0,0.00,,,0.00,meteohub,2013-03-06 03:22:00,
2013-03-05 22:27:00,33.6,55.0,30.12,WNW,284,7.0,7.0,0,0.00,,,0.00,meteohub,2013-03-06 03:27:00,
2013-03-05 22:32:00,33.6,55.0,30.12,NNW,329,5.0,7.0,0,0.00,,,0.00,meteohub,2013-03-06 03:32:00,
2013-03-05 22:37:00,33.8,55.0,30.12,NW,306,4.0,7.0,0,0.00,,,0.00,meteohub,2013-03-06 03:37:00,
2013-03-05 22:42:00,33.6,55.0,30.12,WNW,300,4.0,7.0,0,0.00,,,0.00,meteohub,2013-03-06 03:42:00,
2013-03-05 22:47:00,33.6,55.0,30.12,NNW,330,4.0,7.0,0,0.00,,,0.00,meteohub,2013-03-06 03:47:00,
2013-03-05 22:52:00,33.4,55.0,30.12,South,178,5.0,5.0,0,0.00,,,0.00,meteohub,2013-03-06 03:52:00,
2013-03-05 22:57:00,33.6,55.0,30.12,WSW,248,5.0,5.0,0,0.00,,,0.00,meteohub,2013-03-06 03:57:00,
2013-03-05 23:02:00,33.6,55.9,30.12,WNW,293,6.0,6.0,0,0.00,,,0.00,meteohub,2013-03-06 04:02:00,
2013-03-05 23:07:00,33.6,55.9,30.12,WSW,246,6.0,6.0,0,0.00,,,0.00,meteohub,2013-03-06 04:07:00,
2013-03-05 23:12:00,33.8,55.9,30.12,West,261,7.0,7.0,0,0.00,,,0.00,meteohub,2013-03-06 04:12:00,
2013-03-05 23:17:00,33.6,55.9,30.13,North,358,7.0,7.0,0,0.00,,,0.00,meteohub,2013-03-06 04:17:00,
2013-03-05 23:22:00,34.0,55.9,30.13,NW,309,6.0,7.0,0,0.00,,,0.00,meteohub,2013-03-06 04:22:00,
2013-03-05 23:27:00,33.6,55.9,30.13,ESE,118,2.0,7.0,0,0.00,,,0.00,meteohub,2013-03-06 04:27:00,
2013-03-05 23:32:00,34.0,55.9,30.13,West,274,7.0,7.0,0,0.00,,,0.00,meteohub,2013-03-06 04:32:00,
2013-03-05 23:37:00,34.0,55.9,30.13,NW,310,5.0,7.0,0,0.00,,,0.00,meteohub,2013-03-06 04:37:00,
2013-03-05 23:42:00,34.0,55.9,30.13,South,182,5.0,7.0,0,0.00,,,0.00,meteohub,2013-03-06 04:42:00,
2013-03-05 23:47:00,34.2,55.9,30.13,East,87,6.0,7.0,0,0.00,,,0.00,meteohub,2013-03-06 04:47:00,
2013-03-05 23:52:00,34.2,55.9,30.14,West,272,6.0,7.0,0,0.00,,,0.00,meteohub,2013-03-06 04:52:00,
2013-03-05 23:57:00,34.2,55.9,30.14,WNW,295,3.0,6.0,0,0.00,,,0.00,meteohub,2013-03-06 04:57:00,